Location: Omaha
(41.2590°N, 95.9380°W)
Time: 01:33:10
(UTC-05:00)

Vanguard 3 - All Passes

Search period start: 22 October 2017 00:00
Search period end: 01 November 2017 00:00
Orbit: 510 x 3263 km, 33.3° (Epoch: 21 October)

Date Brightness Start Highest point End Pass type
(mag) Time Alt. Az. Time Alt. Az. Time Alt. Az.
22 Oct - 02:19:50 10° S 02:32:18 23° SSE 02:41:56 10° ESE visible
22 Oct - 04:31:34 10° SW 04:46:26 42° SSE 04:55:38 10° E visible
22 Oct - 06:47:19 10° WSW 06:59:44 53° S 07:06:43 10° ESE visible
22 Oct - 09:03:36 10° W 09:11:34 36° SSW 09:16:31 10° SE daylight
23 Oct - 01:08:08 10° S 01:17:02 15° SE 01:24:49 10° ESE visible
23 Oct - 03:15:59 10° SSW 03:31:19 35° SSE 03:41:49 10° E visible
23 Oct - 05:30:37 10° WSW 05:45:17 52° S 05:53:48 10° E visible
23 Oct - 07:47:12 10° W 07:58:03 49° SSW 08:04:15 10° ESE daylight
23 Oct - 10:03:44 10° W 10:09:00 20° SW 10:12:48 10° SSE daylight
24 Oct - 02:01:31 10° SSW 02:15:57 28° SSE 02:27:03 10° E visible
24 Oct - 04:14:08 10° SW 04:30:21 48° SSE 04:40:28 10° E visible
24 Oct - 06:30:24 10° WSW 06:43:58 56° S 06:51:36 10° ESE visible
24 Oct - 08:47:11 10° W 08:55:57 35° SSW 09:01:20 10° SE daylight
25 Oct - 00:48:55 10° S 01:00:33 19° SE 01:10:38 10° ESE visible
25 Oct - 02:58:18 10° SW 03:15:00 41° SSE 03:26:35 10° E visible
25 Oct - 05:13:27 10° WSW 05:29:19 56° S 05:38:36 10° E visible
25 Oct - 07:30:28 10° W 07:42:21 49° SSW 07:49:06 10° ESE daylight
25 Oct - 09:47:40 10° W 09:53:18 19° SW 09:57:21 10° S daylight
25 Oct - 23:41:48 10° SE 23:45:17 11° SE 23:48:42 10° ESE night (unlit)
26 Oct - 01:43:34 10° SSW 01:59:26 32° SSE 02:11:53 10° E visible
26 Oct - 03:56:46 10° SW 04:14:08 52° SSE 04:25:10 10° E visible
26 Oct - 06:13:25 10° WSW 06:28:06 58° S 06:36:26 10° ESE visible
26 Oct - 08:30:40 10° W 08:40:14 35° SSW 08:46:04 10° SE daylight
27 Oct - 00:30:27 10° S 00:43:54 23° SE 00:55:47 10° E visible
27 Oct - 02:40:47 10° SW 02:58:33 45° SSE 03:11:13 10° E visible
27 Oct - 04:56:18 10° WSW 05:13:14 60° S 05:23:20 10° E visible
27 Oct - 07:13:38 10° W 07:26:32 49° SSW 07:33:54 10° SE visible
27 Oct - 09:31:30 10° W 09:37:29 19° SW 09:41:49 10° S daylight
27 Oct - 23:20:29 10° SSE 23:28:37 14° SE 23:36:31 10° ESE night (unlit)
28 Oct - 01:25:54 10° SSW 01:42:47 37° SSE 01:56:28 10° E visible
28 Oct - 03:39:31 10° WSW 03:57:48 57° SSE 04:09:47 10° E visible
28 Oct - 05:56:25 10° W 06:12:08 59° S 06:21:11 10° ESE visible
28 Oct - 08:14:02 10° W 08:24:23 34° SSW 08:30:44 10° SSE daylight
29 Oct - 00:12:28 10° S 00:27:09 27° SE 00:40:30 10° E visible
29 Oct - 02:23:28 10° SW 02:41:59 50° SSE 02:55:41 10° E visible
29 Oct - 04:39:12 10° WSW 04:57:02 62° S 05:07:59 10° ESE visible
29 Oct - 06:56:45 10° W 07:10:36 49° SSW 07:18:37 10° SE visible
29 Oct - 09:15:17 10° W 09:21:34 18° SW 09:26:10 10° S daylight
29 Oct - 23:01:26 10° SSE 23:11:51 17° SE 23:22:09 10° ESE night (unlit)
30 Oct - 01:08:29 10° SSW 01:26:02 41° SSE 01:40:51 10° E visible
30 Oct - 03:22:22 10° WSW 03:41:22 60° S 03:54:18 10° E visible
30 Oct - 05:39:23 10° W 05:56:01 59° SSW 06:05:50 10° ESE visible
30 Oct - 07:57:21 10° W 08:08:25 33° SW 08:15:18 10° SSE daylight
30 Oct - 23:54:53 10° SSW 00:10:17 31° SE 00:24:54 10° E visible
31 Oct - 02:06:19 10° SW 02:25:18 54° SSE 02:40:02 10° E visible
31 Oct - 04:22:08 10° WSW 04:40:43 64° S 04:52:33 10° ESE visible
31 Oct - 06:39:49 10° W 06:54:32 48° SSW 07:03:14 10° SE visible
31 Oct - 08:59:03 10° W 09:05:32 17° SW 09:10:23 10° S daylight
31 Oct - 22:43:15 10° S 22:54:58 20° SE 23:07:01 10° E visible
